FENGYUN 1C DEB

Satellite information

Favourite Embed

Satellite Type and Status

DEBRISIN ORBIT

Key statistics

Satellite FENGYUN 1C DEB at a glance.

Uptime

9619

Days in orbit

Revolutions

≈ 14.2

Per day

Orbit

SSO

Sun Synchronous Orbit

Inclination

99.1

Latest

Satellite identification and parameters

Extended collection of information and parameters for FENGYUN 1C DEB.

Object identification

Identified? True

Debris? True

Object name: FENGYUN 1C DEB

International designator: 1999-025YQ

Object number (NORAD): 30279

Object ID (CCSDS): 30279

Country: PEOPLES REPUBLIC OF CHINA (PRC)

Current information (Y/N): Y

RCS size: SMALL

Orbital parameters

Period: 101.22 minutes

Inclination: 99.1364 deg

SMA: 7194.583 km

Apoapsis: 974.934 km

Periapsis: 657.962 km

RAAN: 182.3599 deg

Eccentricy: 0.02202853

Argument of periapsis: 345.8267 deg

Mean anomaly: 143.8058 deg

Mean motion: 14.22637638 rev/day

Mean motion (dot): 0.00002805 rev/day2

B* drag term: 0.0009960698 1/REarth

Two-line elements (TLE)

Creation date: Sept. 8, 2025, 6:18 p.m.

Reference frame: TEME

Reference center: EARTH

Epoch: Sept. 8, 2025, 8:17 a.m. UTC

TLE line 0: 0 FENGYUN 1C DEB

TLE line 1: 1 30279U 99025YQ 25251.34546787 .00002805 00000-0 99607-3 0 9994

TLE line 2: 2 30279 99.1364 182.3599 0220285 345.8267 143.8058 14.22637638962543

Live tracking on map

Real-time ground track for satellite FENGYUN 1C DEB.

In-orbit conjunctions

A list of the most updated potential collisions computed for object FENGYUN 1C DEB.

Target Orbit TCA Probability of collision Miss distance Type
FENGYUN 1C DEB SSO 2025-07-14 02:13:36 0.0001926087 397.0 (m) DEBRIS

Associated space launch

Chinese polar orbiting meteorological satellite

FENGYUN 1C DEB was lifted into orbit during the mission ‘Long March 4B | Feng Yun 1C’, on board a Long March 4B space rocket.

The launch took place on May 10, 1999, 1:33 a.m. from Launch Complex 7.

For more information about the launch, click the button.

Launch to space Long March 4B | Feng Yun 1C
Long March 4B | Feng Yun 1C

Agency: N/A

Status: Launch Successful

Launch date: May 10, 1999, 1:33 a.m. UTC

Rocket: Long March 4B

Launch pad: Launch Complex 7

Location: Taiyuan Satellite Launch Center, People's Republic of China

...

Latest news about this satellite

There are no fresh news available about this satellite. Check back as we update our databases every day.


Newsletter sign-up

Weekly statistics, charts and insights to help you stay on top of the space industry.